| time (UTC) | temp C | wind direction | speed KPH | gust KPH | rain 1hr cm | rain 24hr cm | rain mn cm | humidity % | barometer mb |
| 20260901111804 | 16 | 180 | 4.8 | 9.7 | 0.00 | 0.20 | 0.00 | 84 | 1014.3 |
| 20260901111304 | 16 | 190 | 4.8 | 9.7 | 0.00 | 0.20 | 0.00 | 85 | 1014.3 |
| 20260901105305 | 16 | 186 | 1.6 | 4.8 | 0.00 | 0.20 | 0.00 | 86 | 1014.3 |
| 20260901103305 | 16 | 181 | 3.2 | 4.8 | 0.00 | 0.20 | 0.00 | 88 | 1014.3 |
| 20260901102805 | 16 | 171 | 3.2 | 8.0 | 0.00 | 0.20 | 0.00 | 88 | 1014.3 |
| 20260901101304 | 16 | 173 | 3.2 | 8.0 | 0.00 | 0.20 | 0.00 | 89 | 1014.3 |
| 20260901100304 | 16 | 167 | 3.2 | 4.8 | 0.00 | 0.20 | 0.00 | 89 | 1014.3 |
| 20260901095804 | 16 | 174 | 1.6 | 4.8 | 0.00 | 0.20 | 0.00 | 89 | 1014.3 |
| 20260901093304 | 16 | 202 | 0.0 | 0.0 | 0.00 | 0.20 | 0.00 | 88 | 1014.3 |
| 20260901092305 | 16 | 202 | 0.0 | 0.0 | 0.00 | 0.20 | 0.00 | 87 | 1014.3 |
| 20260901091804 | 16 | 202 | 0.0 | 1.6 | 0.00 | 0.20 | 0.00 | 87 | 1014.3 |
| 20260901091304 | 16 | 202 | 0.0 | 1.6 | 0.00 | 0.20 | 0.00 | 86 | 1014.3 |
| 20260901090804 | 16 | 202 | 0.0 | 0.0 | 0.00 | 0.20 | 0.00 | 86 | 1014.3 |
| 20260901090304 | 17 | 202 | 0.0 | 3.2 | 0.00 | 0.20 | 0.00 | 85 | 1014.3 |
| 20260901084804 | 17 | 210 | 1.6 | 4.8 | 0.00 | 0.20 | 0.00 | 87 | 1014.3 |
| 20260901084304 | 17 | 249 | 1.6 | 3.2 | 0.00 | 0.20 | 0.00 | 87 | 1014.3 |
| 20260901083804 | 16 | 273 | 3.2 | 8.0 | 0.00 | 0.20 | 0.00 | 87 | 1014.3 |
| 20260901082804 | 17 | 63 | 0.0 | 0.0 | 0.00 | 0.20 | 0.00 | 86 | 1014.3 |
| 20260901081304 | 17 | 63 | 0.0 | 1.6 | 0.00 | 0.20 | 0.00 | 86 | 1014.3 |
| 20260901080804 | 17 | 63 | 0.0 | 1.6 | 0.00 | 0.20 | 0.00 | 86 | 1014.3 |
| 20260901080304 | 17 | 63 | 0.0 | 1.6 | 0.00 | 0.20 | 0.00 | 86 | 1014.3 |
| 20260901075307 | 17 | 63 | 0.0 | 3.2 | 0.00 | 0.20 | 0.00 | 85 | 1014.3 |
| 20260901074304 | 17 | 63 | 0.0 | 0.0 | 0.00 | 0.20 | 0.00 | 85 | 1014.3 |
| 20260901073804 | 17 | 63 | 0.0 | 1.6 | 0.00 | 0.20 | 0.00 | 85 | 1014.3 |
| 20260901072309 | 17 | 63 | 3.2 | 4.8 | 0.00 | 0.20 | 0.00 | 83 | 1014.3 |
| 20260901071304 | 17 | 206 | 3.2 | 4.8 | 0.00 | 0.20 | 0.00 | 84 | 1014.3 |
| 20260901070804 | 17 | 202 | 3.2 | 4.8 | 0.00 | 0.20 | 0.00 | 84 | 1014.3 |
| 20260901065804 | 17 | 116 | 0.0 | 3.2 | 0.00 | 0.20 | 0.00 | 84 | 1014.3 |
| 20260901064804 | 17 | 113 | 0.0 | 3.2 | 0.00 | 0.20 | 0.00 | 83 | 1014.3 |
| 20260901064304 | 17 | 111 | 3.2 | 8.0 | 0.00 | 0.20 | 0.00 | 83 | 1014.3 |
| 20260901063804 | 17 | 111 | 3.2 | 4.8 | 0.00 | 0.20 | 0.00 | 83 | 1014.3 |
| 20260901062309 | 17 | 171 | 6.4 | 11.3 | 0.00 | 0.20 | 0.00 | 82 | 1014.3 |
| 20260901061804 | 17 | 169 | 8.0 | 11.3 | 0.00 | 0.20 | 0.00 | 81 | 1014.3 |
| 20260901061304 | 17 | 209 | 8.0 | 19.3 | 0.00 | 0.20 | 0.00 | 81 | 1014.3 |
| 20260901060304 | 17 | 173 | 4.8 | 8.0 | 0.00 | 0.20 | 0.00 | 82 | 1014.3 |
| 20260901055804 | 17 | 211 | 3.2 | 4.8 | 0.00 | 0.20 | 0.20 | 82 | 1014.3 |
| 20260901054803 | 17 | 259 | 1.6 | 3.2 | 0.00 | 0.20 | 0.20 | 82 | 1014.3 |
| 20260901054304 | 17 | 259 | 0.0 | 3.2 | 0.00 | 0.20 | 0.20 | 81 | 1014.3 |
| 20260901053804 | 17 | 259 | 0.0 | 3.2 | 0.00 | 0.20 | 0.20 | 81 | 1014.3 |
| 20260901053304 | 17 | 259 | 1.6 | 4.8 | 0.00 | 0.20 | 0.20 | 82 | 1014.3 |
| 20260901052804 | 17 | 259 | 0.0 | 3.2 | 0.00 | 0.20 | 0.20 | 81 | 1014.3 |
| 20260901051804 | 17 | 259 | 3.2 | 4.8 | 0.00 | 0.20 | 0.20 | 81 | 1014.3 |
| 20260901051304 | 17 | 250 | 1.6 | 4.8 | 0.00 | 0.20 | 0.20 | 81 | 1014.3 |
| 20260901050804 | 17 | 263 | 3.2 | 8.0 | 0.00 | 0.20 | 0.20 | 81 | 1014.3 |
| 20260901050304 | 17 | 302 | 1.6 | 8.0 | 0.00 | 0.20 | 0.20 | 80 | 1014.3 |
| 20260901045306 | 17 | 270 | 4.8 | 9.7 | 0.00 | 0.20 | 0.20 | 79 | 1014.3 |
| 20260901044304 | 17 | 311 | 4.8 | 11.3 | 0.00 | 0.20 | 0.20 | 77 | 1014.3 |
| 20260901043804 | 17 | 309 | 3.2 | 8.0 | 0.00 | 0.20 | 0.20 | 77 | 1014.3 |
| 20260901042804 | 18 | 248 | 3.2 | 8.0 | 0.00 | 0.20 | 0.20 | 74 | 1014.3 |
| 20260901040804 | 17 | 188 | 4.8 | 11.3 | 0.03 | 0.20 | 0.20 | 77 | 1014.3 |
| 20260901035803 | 17 | 27 | 6.4 | 11.3 | 0.05 | 0.20 | 0.20 | 81 | 1014.3 |
| 20260901035305 | 17 | 29 | 3.2 | 4.8 | 0.05 | 0.20 | 0.20 | 82 | 1014.3 |
| 20260901034804 | 17 | 353 | 3.2 | 8.0 | 0.05 | 0.20 | 0.20 | 83 | 1014.3 |
| 20260901033804 | 17 | 288 | 4.8 | 9.7 | 0.05 | 0.20 | 0.20 | 81 | 1014.3 |
| 20260901032803 | 17 | 245 | 9.7 | 16.1 | 0.05 | 0.20 | 0.20 | 81 | 1014.3 |
| 20260901031805 | 17 | 257 | 8.0 | 12.9 | 0.03 | 0.18 | 0.18 | 79 | 1014.3 |
| 20260901031304 | 17 | 238 | 6.4 | 11.3 | 0.03 | 0.18 | 0.18 | 80 | 1014.3 |
| 20260901024804 | 20 | 218 | 12.9 | 24.1 | 0.00 | 0.15 | 0.15 | 64 | 1014.3 |
| 20260901024304 | 20 | 227 | 11.3 | 19.3 | 0.00 | 0.15 | 0.15 | 67 | 1014.3 |
| 20260901023303 | 20 | 225 | 6.4 | 16.1 | 0.00 | 0.15 | 0.15 | 69 | 1014.3 |
| 20260901022306 | 19 | 230 | 4.8 | 9.7 | 0.00 | 0.15 | 0.15 | 75 | 1014.3 |
| 20260901021303 | 19 | 0 | 3.2 | 4.8 | 0.03 | 0.15 | 0.15 | 73 | 1014.3 |
| 20260901020804 | 19 | 17 | 3.2 | 4.8 | 0.08 | 0.15 | 0.15 | 72 | 1014.3 |
| 20260901015803 | 19 | 353 | 4.8 | 16.1 | 0.15 | 0.15 | 0.15 | 73 | 1014.3 |
| 20260901014804 | 18 | 326 | 9.7 | 16.1 | 0.15 | 0.15 | 0.15 | 76 | 1014.3 |
| 20260901012804 | 17 | 321 | 1.6 | 4.8 | 0.15 | 0.15 | 0.15 | 82 | 1014.3 |
| 20260901011304 | 19 | 282 | 9.7 | 24.1 | 0.13 | 0.13 | 0.13 | 69 | 1014.3 |
| 20260901010304 | 22 | 296 | 8.0 | 37.0 | 0.03 | 0.03 | 0.03 | 54 | 1013.5 |
| 20260901005805 | 25 | 260 | 11.3 | 33.8 | 0.00 | 0.00 | 0.00 | 42 | 1013.5 |
| 20260901002803 | 27 | 90 | 6.4 | 19.3 | 0.00 | 0.00 | 0.00 | 31 | 1013.5 |
| 20260901002305 | 27 | 93 | 6.4 | 14.5 | 0.00 | 0.00 | 0.00 | 31 | 1013.5 |
| 20260901001304 | 27 | 80 | 8.0 | 20.9 | 0.00 | 0.00 | 0.00 | 30 | 1013.5 |
| 20260831234804 | 28 | 118 | 8.0 | 12.9 | 0.00 | 0.00 | 0.00 | 29 | 1013.5 |
| 20260831233804 | 28 | 124 | 8.0 | 12.9 | 0.00 | 0.00 | 0.00 | 29 | 1013.5 |
| 20260831231804 | 30 | 146 | 11.3 | 19.3 | 0.00 | 0.00 | 0.00 | 27 | 1013.5 |
| 20260831230303 | 28 | 112 | 6.4 | 14.5 | 0.00 | 0.00 | 0.00 | 27 | 1013.5 |
| 20260831225306 | 30 | 126 | 8.0 | 14.5 | 0.00 | 0.00 | 0.00 | 28 | 1013.5 |
| 20260831224804 | 29 | 156 | 3.2 | 19.3 | 0.00 | 0.00 | 0.00 | 31 | 1013.5 |
| 20260831223304 | 28 | 102 | 11.3 | 19.3 | 0.00 | 0.00 | 0.00 | 29 | 1013.5 |
| 20260831222306 | 28 | 79 | 11.3 | 20.9 | 0.00 | 0.00 | 0.00 | 29 | 1013.5 |
| 20260831220804 | 28 | 42 | 4.8 | 14.5 | 0.00 | 0.00 | 0.00 | 31 | 1013.5 |
| 20260831215804 | 28 | 147 | 3.2 | 9.7 | 0.00 | 0.00 | 0.00 | 30 | 1013.5 |
| 20260831215306 | 28 | 46 | 6.4 | 11.3 | 0.00 | 0.00 | 0.00 | 30 | 1013.5 |
| 20260831213804 | 27 | 35 | 8.0 | 16.1 | 0.00 | 0.00 | 0.00 | 33 | 1013.5 |
| 20260831213304 | 27 | 37 | 4.8 | 9.7 | 0.00 | 0.00 | 0.00 | 31 | 1013.5 |
| 20260831212306 | 27 | 59 | 3.2 | 11.3 | 0.00 | 0.00 | 0.00 | 32 | 1013.5 |
| 20260831211304 | 27 | 107 | 4.8 | 9.7 | 0.00 | 0.00 | 0.00 | 34 | 1013.5 |
| 20260831210804 | 27 | 55 | 6.4 | 11.3 | 0.00 | 0.00 | 0.00 | 34 | 1013.5 |
| 20260831210304 | 27 | 50 | 6.4 | 11.3 | 0.00 | 0.00 | 0.00 | 37 | 1013.5 |
| 20260831205803 | 27 | 59 | 6.4 | 12.9 | 0.00 | 0.00 | 0.00 | 35 | 1013.5 |
| 20260831205305 | 27 | 37 | 6.4 | 9.7 | 0.00 | 0.00 | 0.00 | 36 | 1013.5 |
| 20260831204804 | 27 | 44 | 6.4 | 9.7 | 0.00 | 0.00 | 0.00 | 34 | 1013.5 |
| 20260831201804 | 27 | 125 | 4.8 | 11.3 | 0.00 | 0.05 | 0.00 | 34 | 1013.5 |
| 20260831200303 | 27 | 75 | 4.8 | 11.3 | 0.00 | 0.05 | 0.00 | 35 | 1013.5 |
| 20260831195804 | 27 | 131 | 4.8 | 11.3 | 0.00 | 0.05 | 0.00 | 34 | 1013.5 |
| 20260831195306 | 27 | 59 | 3.2 | 9.7 | 0.00 | 0.05 | 0.00 | 36 | 1013.5 |
| 20260831194804 | 27 | 88 | 1.6 | 8.0 | 0.00 | 0.05 | 0.00 | 36 | 1013.5 |
| 20260831193803 | 26 | 140 | 1.6 | 4.8 | 0.00 | 0.05 | 0.00 | 33 | 1013.5 |
| 20260831192803 | 26 | 142 | 3.2 | 8.0 | 0.00 | 0.05 | 0.00 | 36 | 1013.5 |
| 20260831191304 | 26 | 189 | 0.0 | 4.8 | 0.00 | 0.05 | 0.00 | 36 | 1013.5 |
| 20260831185804 | 26 | 100 | 3.2 | 9.7 | 0.00 | 0.05 | 0.00 | 37 | 1013.5 |
| 20260831184804 | 26 | 126 | 0.0 | 3.2 | 0.00 | 0.05 | 0.00 | 37 | 1013.5 |
| 20260831184304 | 26 | 304 | 0.0 | 1.6 | 0.00 | 0.05 | 0.00 | 37 | 1013.5 |
| 20260831183304 | 26 | 201 | 0.0 | 1.6 | 0.00 | 0.05 | 0.00 | 35 | 1013.5 |
| 20260831182803 | 25 | 201 | 1.6 | 3.2 | 0.00 | 0.05 | 0.00 | 35 | 1013.5 |
| 20260831181804 | 25 | 150 | 0.0 | 4.8 | 0.00 | 0.05 | 0.00 | 36 | 1013.5 |
| 20260831180303 | 25 | 111 | 1.6 | 4.8 | 0.00 | 0.05 | 0.00 | 39 | 1013.5 |
| 20260831175803 | 25 | 147 | 0.0 | 1.6 | 0.00 | 0.05 | 0.00 | 39 | 1013.5 |
| 20260831174803 | 24 | 83 | 0.0 | 4.8 | 0.00 | 0.05 | 0.00 | 42 | 1013.5 |
| 20260831174304 | 24 | 112 | 1.6 | 8.0 | 0.00 | 0.05 | 0.00 | 38 | 1013.5 |
| 20260831173803 | 25 | 140 | 1.6 | 4.8 | 0.00 | 0.05 | 0.00 | 41 | 1013.5 |
| 20260831171803 | 24 | 95 | 4.8 | 9.7 | 0.00 | 0.05 | 0.00 | 43 | 1013.5 |
| 20260831164304 | 25 | 105 | 8.0 | 11.3 | 0.00 | 0.05 | 0.00 | 47 | 1013.5 |
| 20260831163804 | 25 | 78 | 6.4 | 11.3 | 0.00 | 0.05 | 0.00 | 42 | 1013.5 |
| 20260831163304 | 25 | 132 | 1.6 | 9.7 | 0.00 | 0.05 | 0.00 | 39 | 1013.5 |
| 20260831162803 | 24 | 34 | 4.8 | 8.0 | 0.00 | 0.05 | 0.00 | 40 | 1013.5 |
| 20260831161804 | 25 | 314 | 1.6 | 4.8 | 0.00 | 0.05 | 0.00 | 43 | 1013.5 |
| 20260831161304 | 25 | 262 | 0.0 | 4.8 | 0.00 | 0.05 | 0.00 | 38 | 1013.5 |
| 20260831160804 | 25 | 263 | 4.8 | 4.8 | 0.00 | 0.05 | 0.00 | 38 | 1013.5 |
| 20260831154804 | 23 | 315 | 1.6 | 4.8 | 0.00 | 0.05 | 0.00 | 48 | 1013.5 |
| 20260831154304 | 23 | 301 | 1.6 | 4.8 | 0.00 | 0.05 | 0.00 | 47 | 1013.5 |
| 20260831153804 | 23 | 41 | 3.2 | 4.8 | 0.00 | 0.05 | 0.00 | 48 | 1013.5 |
| 20260831152804 | 23 | 355 | 3.2 | 4.8 | 0.00 | 0.05 | 0.00 | 50 | 1013.5 |
| 20260831151805 | 23 | 92 | 1.6 | 3.2 | 0.00 | 0.05 | 0.00 | 53 | 1013.5 |
| 20260831151304 | 23 | 132 | 0.0 | 4.8 | 0.00 | 0.05 | 0.00 | 46 | 1013.5 |
| 20260831150804 | 22 | 192 | 3.2 | 4.8 | 0.00 | 0.05 | 0.00 | 47 | 1013.5 |
| 20260831145803 | 22 | 231 | 1.6 | 4.8 | 0.00 | 0.05 | 0.00 | 52 | 1013.5 |
| 20260831144304 | 21 | 194 | 3.2 | 4.8 | 0.00 | 0.05 | 0.00 | 54 | 1013.5 |
| 20260831143305 | 20 | 210 | 3.2 | 4.8 | 0.00 | 0.05 | 0.00 | 57 | 1013.5 |
| 20260831142805 | 20 | 356 | 0.0 | 1.6 | 0.00 | 0.05 | 0.00 | 60 | 1013.5 |
| 20260831141805 | 20 | 355 | 1.6 | 3.2 | 0.00 | 0.05 | 0.00 | 60 | 1013.5 |
| 20260831141305 | 20 | 355 | 3.2 | 4.8 | 0.00 | 0.05 | 0.00 | 62 | 1013.5 |
| 20260831135805 | 19 | 207 | 0.0 | 3.2 | 0.00 | 0.05 | 0.00 | 62 | 1013.5 |
| 20260831135306 | 19 | 207 | 3.2 | 4.8 | 0.00 | 0.05 | 0.00 | 62 | 1013.5 |
| 20260831134804 | 18 | 202 | 3.2 | 4.8 | 0.00 | 0.05 | 0.00 | 62 | 1013.5 |
| 20260831134305 | 18 | 166 | 0.0 | 3.2 | 0.00 | 0.05 | 0.00 | 63 | 1013.5 |
| 20260831133804 | 18 | 203 | 3.2 | 4.8 | 0.00 | 0.05 | 0.00 | 64 | 1013.5 |
| 20260831132306 | 17 | 162 | 3.2 | 3.2 | 0.00 | 0.05 | 0.00 | 70 | 1013.5 |
| 20260831130805 | 16 | 162 | 0.0 | 1.6 | 0.00 | 0.05 | 0.00 | 71 | 1013.5 |
| 20260831125306 | 16 | 221 | 1.6 | 3.2 | 0.00 | 0.05 | 0.00 | 72 | 1013.5 |
| 20260831124305 | 16 | 221 | 0.0 | 3.2 | 0.00 | 0.05 | 0.00 | 72 | 1013.5 |
| 20260831123805 | 16 | 221 | 1.6 | 3.2 | 0.00 | 0.05 | 0.00 | 72 | 1013.5 |
| 20260831121305 | 16 | 5 | 0.0 | 0.0 | 0.00 | 0.05 | 0.00 | 72 | 1013.5 |
| 20260831120306 | 16 | 5 | 0.0 | 4.8 | 0.00 | 0.05 | 0.00 | 72 | 1013.5 |
| 20260831115804 | 16 | 336 | 0.0 | 3.2 | 0.00 | 0.05 | 0.00 | 72 | 1013.5 |
| 20260831115306 | 16 | 336 | 3.2 | 4.8 | 0.00 | 0.05 | 0.00 | 71 | 1013.5 |
| 20260831114804 | 16 | 225 | 1.6 | 4.8 | 0.00 | 0.05 | 0.00 | 69 | 1013.5 |
| 20260831114305 | 16 | 225 | 3.2 | 4.8 | 0.00 | 0.05 | 0.00 | 70 | 1013.5 |